Location: Newark
(8.1700°N, 77.4300°E)
Time: 09:39:31
(UTC+00:00)

Hubble Space Telescope - Pass Details

Date: 01 September 2019
Orbit: 536 x 540 km, 28.5° (Epoch: 20 October)

Event Time Altitude Azimuth Distance (km) Brightness Sun altitude
Rises 13:16:11 0° 281° (W) 2,666 7.4 -5.1°
Reaches altitude 10° 13:18:42 10° 269° (W) 1,776 5.1 -5.8°
Maximum altitude 13:22:10 26° 211° (SSW) 1,060 2.5 -6.6°
Drops below altitude 10° 13:25:39 10° 153° (SSE) 1,775 3.1 -7.5°
Enters shadow 13:27:33 - 142° (SE) 2,441 3.7 -7.9°
